Time,TemperatureF,DewpointF,PressureIn,WindDirection,WindDirectionDegrees,WindSpeedMPH,WindSpeedGustMPH,Humidity,HourlyPrecipIn,Conditions,Clouds,dailyrainin,SoftwareType,DateUTC
2013-01-25 00:04:00,60.8,55.3,30.07,North,5,4.0,4.0,82,0.00,,,0.00,Wunderground v.1.15,2013-01-25 08:04:00,
2013-01-25 00:14:00,60.8,55.3,30.07,NNE,15,3.0,3.0,82,0.00,,,0.00,Wunderground v.1.15,2013-01-25 08:14:00,
2013-01-25 00:24:00,60.8,55.3,30.06,NNE,13,2.0,2.0,82,0.00,,,0.00,Wunderground v.1.15,2013-01-25 08:24:00,
2013-01-25 00:34:00,61.1,55.6,30.07,NE,40,1.0,1.0,82,0.00,,,0.00,Wunderground v.1.15,2013-01-25 08:34:00,
2013-01-25 00:44:00,61.3,55.8,30.07,ENE,74,0.0,0.0,82,0.00,,,0.00,Wunderground v.1.15,2013-01-25 08:44:00,
2013-01-25 00:54:00,61.2,55.7,30.08,ENE,71,0.0,0.0,82,0.00,,,0.00,Wunderground v.1.15,2013-01-25 08:54:00,
2013-01-25 01:04:00,60.9,55.7,30.08,ENE,71,0.0,0.0,83,0.00,,,0.00,Wunderground v.1.15,2013-01-25 09:04:00,
2013-01-25 01:14:00,60.4,55.9,30.09,ENE,71,0.0,0.0,85,0.00,,,0.00,Wunderground v.1.15,2013-01-25 09:14:00,
2013-01-25 01:24:00,59.8,55.9,30.09,SW,234,0.0,0.0,87,0.00,,,0.00,Wunderground v.1.15,2013-01-25 09:24:00,
2013-01-25 01:34:00,59.6,55.7,30.09,WSW,240,0.0,0.0,87,0.00,,,0.00,Wunderground v.1.15,2013-01-25 09:34:00,
2013-01-25 01:54:00,58.6,55.7,30.07,NW,309,0.0,0.0,90,0.00,,,0.00,Wunderground v.1.15,2013-01-25 09:54:00,
2013-01-25 02:04:00,58.4,55.8,30.06,NW,309,0.0,0.0,91,0.00,,,0.00,Wunderground v.1.15,2013-01-25 10:04:00,
2013-01-25 02:14:00,58.3,56.0,30.06,NW,309,0.0,0.0,92,0.00,,,0.01,Wunderground v.1.15,2013-01-25 10:14:00,
2013-01-25 02:24:00,58.4,56.1,30.06,East,83,0.0,0.0,92,0.06,,,0.02,Wunderground v.1.15,2013-01-25 10:24:00,
2013-01-25 02:34:00,58.5,55.9,30.05,NE,51,0.0,0.0,91,0.00,,,0.02,Wunderground v.1.15,2013-01-25 10:34:00,
2013-01-25 02:44:00,58.5,56.2,30.04,NE,51,0.0,0.0,92,0.00,,,0.02,Wunderground v.1.15,2013-01-25 10:44:00,
2013-01-25 02:54:00,58.5,56.2,30.04,ESE,121,0.0,0.0,92,0.00,,,0.02,Wunderground v.1.15,2013-01-25 10:54:00,
2013-01-25 03:04:00,58.5,56.2,30.04,ESE,117,0.0,0.0,92,0.00,,,0.02,Wunderground v.1.15,2013-01-25 11:04:00,
2013-01-25 03:14:00,58.6,56.0,30.03,East,101,0.0,0.0,91,0.00,,,0.02,Wunderground v.1.15,2013-01-25 11:14:00,
2013-01-25 03:24:00,58.9,56.3,30.03,ENE,69,0.0,0.0,91,0.00,,,0.02,Wunderground v.1.15,2013-01-25 11:24:00,
2013-01-25 03:34:00,59.1,56.2,30.02,ENE,63,0.0,0.0,90,0.00,,,0.02,Wunderground v.1.15,2013-01-25 11:34:00,
2013-01-25 03:44:00,59.8,56.6,30.02,ENE,74,0.0,0.0,89,0.00,,,0.02,Wunderground v.1.15,2013-01-25 11:44:00,
2013-01-25 04:04:00,59.1,56.2,30.02,ENE,73,0.0,0.0,90,0.00,,,0.03,Wunderground v.1.15,2013-01-25 12:04:00,
2013-01-25 04:14:00,60.0,56.4,30.02,East,81,0.0,0.0,88,0.00,,,0.03,Wunderground v.1.15,2013-01-25 12:14:00,
2013-01-25 04:24:00,60.5,56.6,30.03,ESE,110,0.0,0.0,87,0.00,,,0.03,Wunderground v.1.15,2013-01-25 12:24:00,
2013-01-25 04:34:00,60.0,56.4,30.03,ESE,110,0.0,0.0,88,0.08,,,0.05,Wunderground v.1.15,2013-01-25 12:34:00,
2013-01-25 05:15:00,59.3,56.7,30.03,ESE,111,0.0,0.0,91,0.00,,,0.06,Wunderground v.1.15,2013-01-25 13:15:00,
2013-01-25 05:35:00,58.1,56.1,30.04,West,262,2.0,4.0,93,0.00,,,0.06,Wunderground v.1.15,2013-01-25 13:35:00,
2013-01-25 06:25:00,58.1,56.4,30.06,NNE,23,0.0,0.0,94,0.12,,,0.10,Wunderground v.1.15,2013-01-25 14:25:00,
2013-01-25 08:55:00,59.7,57.4,30.08,ESE,113,0.0,0.0,92,0.00,,,0.16,Wunderground v.1.15,2013-01-25 16:55:00,
2013-01-25 09:15:00,60.0,57.7,30.08,ESE,110,0.0,0.0,92,0.00,,,0.16,Wunderground v.1.15,2013-01-25 17:15:00,
2013-01-25 10:15:00,61.2,57.9,30.08,ESE,119,0.0,0.0,89,0.00,,,0.16,Wunderground v.1.15,2013-01-25 18:15:00,
2013-01-25 10:35:00,62.0,58.4,30.08,SE,126,0.0,0.0,88,0.00,,,0.16,Wunderground v.1.15,2013-01-25 18:35:00,
2013-01-25 13:15:00,64.6,59.7,29.98,ENE,75,0.0,0.0,84,0.00,,,0.19,Wunderground v.1.15,2013-01-25 21:15:00,
2013-01-25 13:45:00,64.6,59.7,29.99,East,82,0.0,0.0,84,0.00,,,0.19,Wunderground v.1.15,2013-01-25 21:45:00,
2013-01-25 14:55:00,62.1,59.7,29.98,East,82,0.0,0.0,92,0.04,,,0.22,Wunderground v.1.15,2013-01-25 22:55:00,
2013-01-25 17:24:00,61.7,59.7,29.95,NE,51,0.0,0.0,93,0.05,,,0.26,Wunderground v.1.15,2013-01-26 01:24:00,
2013-01-25 17:34:00,61.6,59.9,29.95,NE,51,0.0,0.0,94,0.00,,,0.26,Wunderground v.1.15,2013-01-26 01:34:00,
2013-01-25 17:44:00,61.5,59.8,29.95,NE,51,0.0,0.0,94,0.00,,,0.26,Wunderground v.1.15,2013-01-26 01:44:00,
2013-01-25 17:54:00,61.5,59.8,29.95,NE,50,0.0,0.0,94,0.00,,,0.26,Wunderground v.1.15,2013-01-26 01:54:00,
2013-01-25 18:04:00,61.2,59.5,29.95,West,266,0.0,3.0,94,0.00,,,0.27,Wunderground v.1.15,2013-01-26 02:04:00,
2013-01-25 18:14:00,60.4,58.7,29.96,SW,234,0.0,0.0,94,0.00,,,0.27,Wunderground v.1.15,2013-01-26 02:14:00,
2013-01-25 18:24:00,60.1,58.7,29.96,SW,234,0.0,0.0,95,0.00,,,0.27,Wunderground v.1.15,2013-01-26 02:24:00,
2013-01-25 18:34:00,59.8,58.4,29.97,WNW,286,0.0,0.0,95,0.00,,,0.27,Wunderground v.1.15,2013-01-26 02:34:00,
2013-01-25 18:44:00,59.8,58.4,29.96,WNW,286,0.0,0.0,95,0.00,,,0.27,Wunderground v.1.15,2013-01-26 02:44:00,
2013-01-25 18:54:00,59.8,58.4,29.96,WNW,286,0.0,0.0,95,0.00,,,0.27,Wunderground v.1.15,2013-01-26 02:54:00,
2013-01-25 19:04:00,60.0,58.6,29.96,WNW,286,0.0,0.0,95,0.00,,,0.27,Wunderground v.1.15,2013-01-26 03:04:00,
2013-01-25 19:14:00,59.8,58.4,29.96,WNW,286,0.0,0.0,95,0.00,,,0.27,Wunderground v.1.15,2013-01-26 03:14:00,
2013-01-25 19:24:00,59.8,58.7,29.96,WNW,286,0.0,0.0,96,0.00,,,0.27,Wunderground v.1.15,2013-01-26 03:24:00,
2013-01-25 19:34:00,59.8,58.7,29.95,WNW,286,0.0,0.0,96,0.00,,,0.27,Wunderground v.1.15,2013-01-26 03:34:00,
2013-01-25 19:44:00,59.9,58.8,29.94,WNW,286,0.0,0.0,96,0.00,,,0.27,Wunderground v.1.15,2013-01-26 03:44:00,
2013-01-25 19:54:00,60.2,59.1,29.93,ENE,57,0.0,0.0,96,0.00,,,0.27,Wunderground v.1.15,2013-01-26 03:54:00,
2013-01-25 20:04:00,60.7,59.6,29.93,NE,39,0.0,1.0,96,0.00,,,0.27,Wunderground v.1.15,2013-01-26 04:04:00,
2013-01-25 20:14:00,60.8,59.7,29.93,NE,42,0.0,0.0,96,0.00,,,0.27,Wunderground v.1.15,2013-01-26 04:14:00,
2013-01-25 20:24:00,60.8,59.7,29.95,NE,42,0.0,0.0,96,0.00,,,0.27,Wunderground v.1.15,2013-01-26 04:24:00,
2013-01-25 20:34:00,60.9,59.8,29.96,NE,42,0.0,0.0,96,0.00,,,0.27,Wunderground v.1.15,2013-01-26 04:34:00,
2013-01-25 20:44:00,60.9,59.8,29.96,NE,42,0.0,0.0,96,0.00,,,0.27,Wunderground v.1.15,2013-01-26 04:44:00,
2013-01-25 20:54:00,60.8,59.7,29.97,East,100,0.0,0.0,96,0.00,,,0.28,Wunderground v.1.15,2013-01-26 04:54:00,
2013-01-25 21:04:00,59.8,58.4,29.95,East,100,0.0,0.0,95,0.00,,,0.28,Wunderground v.1.15,2013-01-26 05:04:00,
2013-01-25 21:14:00,60.1,59.0,29.93,East,90,0.0,0.0,96,0.00,,,0.28,Wunderground v.1.15,2013-01-26 05:14:00,
2013-01-25 21:24:00,60.3,59.2,29.94,ESE,119,0.0,0.0,96,0.00,,,0.29,Wunderground v.1.15,2013-01-26 05:24:00,
2013-01-25 21:34:00,59.9,58.8,29.93,West,276,1.0,5.0,96,0.00,,,0.29,Wunderground v.1.15,2013-01-26 05:34:00,
2013-01-25 21:44:00,59.1,58.0,29.94,West,274,1.0,1.0,96,0.00,,,0.29,Wunderground v.1.15,2013-01-26 05:44:00,
2013-01-25 21:54:00,58.8,57.7,29.95,West,277,0.0,0.0,96,0.00,,,0.29,Wunderground v.1.15,2013-01-26 05:54:00,
2013-01-25 22:04:00,58.3,57.2,29.95,West,259,2.0,2.0,96,0.00,,,0.29,Wunderground v.1.15,2013-01-26 06:04:00,
2013-01-25 22:14:00,58.3,57.2,29.95,West,275,0.0,0.0,96,0.00,,,0.29,Wunderground v.1.15,2013-01-26 06:14:00,
2013-01-25 22:24:00,58.3,57.5,29.95,West,275,0.0,0.0,97,0.00,,,0.29,Wunderground v.1.15,2013-01-26 06:24:00,
2013-01-25 22:34:00,58.7,57.9,29.94,ESE,123,0.0,0.0,97,0.00,,,0.29,Wunderground v.1.15,2013-01-26 06:34:00,
2013-01-25 22:44:00,58.9,58.1,29.95,WNW,282,0.0,0.0,97,0.00,,,0.29,Wunderground v.1.15,2013-01-26 06:44:00,
2013-01-25 22:54:00,58.7,57.9,29.94,NW,310,0.0,0.0,97,0.00,,,0.29,Wunderground v.1.15,2013-01-26 06:54:00,
2013-01-25 23:04:00,58.9,58.1,29.95,NW,310,0.0,0.0,97,0.00,,,0.29,Wunderground v.1.15,2013-01-26 07:04:00,
2013-01-25 23:14:00,58.8,58.0,29.95,SW,236,0.0,0.0,97,0.00,,,0.29,Wunderground v.1.15,2013-01-26 07:14:00,
2013-01-25 23:24:00,58.9,58.1,29.94,SW,236,0.0,0.0,97,0.00,,,0.29,Wunderground v.1.15,2013-01-26 07:24:00,
2013-01-25 23:34:00,59.0,58.2,29.93,SW,236,0.0,0.0,97,0.00,,,0.29,Wunderground v.1.15,2013-01-26 07:34:00,
2013-01-25 23:44:00,59.0,58.2,29.93,SW,236,0.0,0.0,97,0.00,,,0.29,Wunderground v.1.15,2013-01-26 07:44:00,
2013-01-25 23:54:00,59.1,58.2,29.93,SW,236,0.0,0.0,97,0.00,,,0.29,Wunderground v.1.15,2013-01-26 07:54:00,